User: anonymous   Login
Location: Astronight Observatory
(42.6003°N, 71.2981°W)
Time: 12:05:38
(UTC-05:00)
Language:

DELTA 2 R/B (1) - Orbit

View from above orbital plane
View from above orbital plane
View from above satellite
View from above satellite

Ground track
Ground track

The orbit data is extracted from the following two-line orbital elements,

1 27665U 03005C   14331.12295373  .00000188  00000-0  10824-3 0  1726
2 27665 039.5738 180.7669 0009068 314.6948 195.2883 14.28254965617486
Epoch (UTC): 27 November 2014 02:57:03
Eccentricity: 0.0009068
inclination: 39.5738°
perigee height: 791 km
apogee height: 804 km
right ascension of ascending node: 180.7669°
argument of perigee: 314.6948°
revolutions per day: 14.28254965
mean anomaly at epoch: 195.2883°
orbit number at epoch: 61748

The dashed part of the orbit path shows where the satellite is in the earth's shadow,  

DLR